[[{"header":{"parameterUnit":"m.s-1","parameterCategory":1,"la1":30.2991,"la2":30.254,"lo1":-89.0895,"lo2":-89.0444,"dy":0.0017,"dx":0.0017,"nx":28,"ny":28,"refTime":"2025-09-07T21:00:00:Z","depth":0,"parameterNumber":2,"parameterNumberName":"U-component_of_WINDS"},"data":[0,0,0,0,0,0,0,0,0,0,0,0,0,0,0,0,0,0,0,0,0,0,0,0,0,0,0,0,0,0,0,0,0,0,0,0,0,0,0,0,0,0,0,0,0,0,0,0,0,0,0,0,0,0,0,0,0,0,-1.0296,-1.0295,0,-1.0229,-1.0228,-1.0227,-1.0192,-1.0192,-1.0192,-1.0192,-1.0122,-1.012,-1.0118,0,0,0,0,0,0,0,0,0,0,0,0,0,-1.039,-1.0388,-1.0296,-1.0295,-1.0294,-1.0229,-1.0228,-1.0227,-1.0192,-1.0192,-1.0192,-1.0192,-1.0122,-1.012,-1.0118,0,0,0,0,0,0,0,0,0,0,0,0,0,-1.0338,-1.0388,-1.0296,-1.0269,-1.0266,-1.0229,-1.0228,-1.0227,-1.0192,-1.0192,-1.0192,-1.0192,-1.0123,-1.012,-1.0118,-1.0102,0,0,-1.0109,-1.0108,0,0,0,0,0,0,0,0,-1.0341,-1.0335,-1.0274,-1.0271,-1.0267,-1.0219,-1.0235,-1.0185,-1.0192,-1.022,-1.0192,-1.0192,-1.0154,-1.0149,-1.0136,-1.0099,-1.0096,-1.0109,-1.0107,-1.0106,-1.0105,0,0,0,0,0,0,0,-1.0345,-1.0338,-1.0269,-1.0273,-1.0269,-1.0259,-1.0252,-1.0226,-1.0188,-1.0218,-1.0215,-1.0208,-1.0152,-1.0139,-1.0134,-1.0095,-1.0109,-1.0107,-1.0105,-1.0104,-1.0038,-1.0038,0,0,0,0,0,0,-1.0353,-1.0341,-1.0271,-1.0267,-1.0305,-1.0257,-1.0249,-1.0235,-1.0188,-1.0181,-1.0208,-1.0206,-1.0144,-1.0138,-1.0132,-1.0108,-1.0106,-1.0104,-1.0102,-1.0038,-1.0038,-1.0038,0,0,0,0,0,0,-1.0356,-1.0348,-1.0274,-1.0303,-1.0293,-1.0256,-1.024,-1.0233,-1.022,-1.0181,-1.0174,-1.0202,-1.0143,-1.0136,-1.0109,-1.0106,-1.0102,-1.01,-1.0038,-1.0038,-1.0038,-1.0063,0,0,0,0,0,0,-1.0358,-1.0349,-1.0343,-1.0304,-1.0292,-1.0254,-1.024,-1.0232,-1.0216,-1.0213,-1.0173,-1.0166,-1.0143,-1.0113,-1.0106,-1.0102,-1.0098,-1.0038,-1.0038,-1.0038,-1.0063,-1.0064,-1.0065,0,0,0,0,0,-1.0362,-1.0353,-1.0343,-1.0335,-1.0285,-1.0254,-1.0247,-1.0221,-1.0216,-1.0209,-1.0184,-1.0168,-1.0107,-1.0111,-1.0103,-1.0097,-1.0038,-1.0038,-1.0038,-1.0062,-1.0064,-1.0065,0,0,0,0,0,0,-1.0394,-1.0348,-1.0336,-1.0315,-1.0289,-1.0248,-1.024,-1.0224,-1.0198,-1.0197,-1.0164,-1.0155,-1.0131,-1.0112,-1.0117,-1.0078,-1.0071,-1.0069,-1.0092,-1.0094,-1.0095,-1.01,-1.0095,0,0,0,0,0,-1.0398,-1.0378,-1.0339,-1.0324,-1.0311,-1.0278,-1.0263,-1.0245,-1.0216,-1.0205,-1.0177,-1.0149,-1.0124,-1.0108,-1.0082,-1.006,-1.0049,-1.0052,-1.0053,-1.0054,-1.0053,-1.0037,-1.0037,-1.0037,-1.0037,-1.0037,0,0,-1.0407,-1.038,-1.0369,-1.0329,-1.0307,-1.0285,-1.0269,-1.0247,-1.023,-1.0201,-1.0174,-1.0153,-1.0119,-1.0094,-1.0082,-1.0077,-1.005,-1.0054,-1.0055,-1.0053,-1.0036,-1.0036,-1.0036,-1.0037,-1.0037,-1.0037,0,0,-1.0413,-1.0391,-1.0375,-1.0352,-1.0318,-1.0296,-1.0292,-1.0253,-1.0238,-1.0211,-1.0188,-1.0166,-1.0124,-1.01,-1.0082,-1.0076,-1.0059,-1.0069,-1.0075,-1.006,-1.006,-1.006,-1.0056,-1.0055,-1.0067,-1.0067,-1.0067,0,-1.0428,-1.0396,-1.0368,-1.0347,-1.0329,-1.0302,-1.0284,-1.0264,-1.0223,-1.021,-1.0206,-1.015,-1.0126,-1.0093,-1.0091,-1.0079,-1.0072,-1.0073,-1.0062,-1.0062,-1.0061,-1.0057,-1.0056,-1.0069,-1.0068,-1.0068,-1.0068,0,-1.0415,-1.0393,-1.0384,-1.0345,-1.0326,-1.0307,-1.0275,-1.0259,-1.0241,-1.0219,-1.0189,-1.0159,-1.0126,-1.0117,-1.01,-1.0081,-1.0079,-1.0069,-1.0061,-1.0063,-1.0058,-1.0056,-1.007,-1.007,-1.007,-1.0069,0,0,-1.044,-1.0385,-1.0382,-1.0363,-1.0322,-1.0304,-1.0282,-1.025,-1.0235,-1.0208,-1.0187,-1.0151,-1.014,-1.012,-1.01,-1.0087,-1.0081,-1.0078,-1.0077,-1.0078,-1.0056,-1.0063,-1.0062,-1.007,-1.007,-1.007,-1.0058,0,-1.0438,-1.0399,-1.0373,-1.0343,-1.0321,-1.0294,-1.0275,-1.0247,-1.0225,-1.0201,-1.0176,-1.015,-1.0139,-1.0127,-1.0112,-1.0085,-1.0076,-1.0086,-1.0049,-1.0048,-1.0058,-1.0059,-1.0067,-1.0058,-1.0056,-1.0056,-1.0056,0,-1.0432,-1.0404,-1.0373,-1.0333,-1.0322,-1.0306,-1.0272,-1.0251,-1.0218,-1.0202,-1.0179,-1.0158,-1.0132,-1.0126,-1.0089,-1.0096,-1.0079,-1.0063,-1.0062,-1.0057,-1.0052,-1.0053,-1.0055,-1.0053,-1.0053,-1.0053,-1.0053,0,-1.045,-1.0406,-1.038,-1.0365,-1.0318,-1.0307,-1.0286,-1.0253,-1.0235,-1.0205,-1.0192,-1.0161,-1.0143,-1.0117,-1.0088,-1.0087,-1.0052,-1.0045,-1.0037,-1.0038,-1.0031,-1.0031,-1.0029,-1.0022,-1.0022,-1.0022,-1.0022,0,-1.045,-1.0432,-1.0388,-1.0372,-1.035,-1.0318,-1.0297,-1.0274,-1.0244,-1.0222,-1.0197,-1.0177,-1.0139,-1.0114,-1.009,-1.0061,-1.0054,-1.0039,-1.0033,-1.0041,-1.0043,-1.0029,-1.0028,-1.0022,-1.0022,-1.0022,-1.0022,0,-1.0468,-1.0438,-1.0408,-1.0365,-1.0354,-1.0339,-1.0302,-1.0285,-1.0261,-1.0233,-1.0225,-1.0186,-1.0155,-1.0123,-1.0081,-1.0064,-1.0036,-1.0028,-1.0047,-1.0043,-1.0037,-1.0037,-1.0025,-1.002,-1.0018,-1.0018,-1.0018,0,-1.0469,-1.0454,-1.041,-1.0393,-1.0374,-1.0348,-1.0329,-1.0296,-1.0277,-1.0237,-1.0224,-1.0191,-1.0162,-1.0113,-1.008,-1.0047,-1.0037,-1.0035,-1.0032,-1.004,-1.0035,-1.0036,-1.0033,-1.0036,-1.0036,-1.0036,-1.0036,0,-1.0475,-1.046,-1.0434,-1.0401,-1.0379,-1.0352,-1.0324,-1.0311,-1.0273,-1.0252,-1.022,-1.0198,-1.0154,-1.012,-1.0083,-1.006,-1.0041,-1.0038,-1.0034,-1.0041,-1.0052,-1.0044,-1.0049,-1.0038,-1.0038,-1.0038,-1.0038,-1.0038,-1.0483,-1.0467,-1.0433,-1.0404,-1.0379,-1.0353,-1.0334,-1.0307,-1.028,-1.0241,-1.0224,-1.0191,-1.0155,-1.0103,-1.008,-1.0053,-1.0048,-1.0043,-1.0041,-1.004,-1.0041,-1.0057,-1.0046,-1.0046,-1.0046,-1.0046,-1.0046,0,-1.0486,-1.0462,-1.0435,-1.0396,-1.0372,-1.0357,-1.0325,-1.0305,-1.0277,-1.0246,-1.0218,-1.0179,-1.0146,-1.0111,-1.0075,-1.0059,-1.005,-1.0051,-1.0051,-1.0046,-1.0049,-1.0055,-1.0059,-1.0059,-1.0059,-1.0059,-1.0059,-1.0059,-1.0484,-1.0456,-1.0437,-1.0396,-1.0372,-1.034,-1.0322,-1.0297,-1.0272,-1.023,-1.0202,-1.018,-1.0146,-1.0107,-1.0075,-1.0065,-1.0052,-1.0056,-1.0043,-1.0047,-1.0046,-1.0045,-1.005,-1.0054,-1.0054,-1.0042,-1.0042,-1.0042]},{"header":{"parameterUnit":"m.s-1","parameterCategory":1,"la1":30.2991,"la2":30.254,"lo1":-89.0895,"lo2":-89.0444,"dy":0.0017,"dx":0.0017,"nx":28,"ny":28,"refTime":"2025-09-07T21:00:00:Z","depth":0,"parameterNumber":3,"parameterNumberName":"V-component_of_WINDS"},"data":[0,0,0,0,0,0,0,0,0,0,0,0,0,0,0,0,0,0,0,0,0,0,0,0,0,0,0,0,0,0,0,0,0,0,0,0,0,0,0,0,0,0,0,0,0,0,0,0,0,0,0,0,0,0,0,0,0,0,-1.9066,-1.9066,0,-1.9039,-1.9038,-1.9038,-1.9053,-1.9053,-1.9054,-1.9055,-1.9022,-1.902,-1.9019,0,0,0,0,0,0,0,0,0,0,0,0,0,-1.9127,-1.9126,-1.9066,-1.9066,-1.9066,-1.9039,-1.9038,-1.9038,-1.9053,-1.9054,-1.9054,-1.9055,-1.9022,-1.9021,-1.9019,0,0,0,0,0,0,0,0,0,0,0,0,0,-1.91,-1.9126,-1.9066,-1.907,-1.907,-1.9039,-1.9038,-1.9038,-1.9052,-1.9054,-1.9055,-1.9056,-1.9023,-1.9021,-1.9018,-1.8981,0,0,-1.9011,-1.901,0,0,0,0,0,0,0,0,-1.9102,-1.9098,-1.907,-1.907,-1.907,-1.905,-1.9048,-1.9019,-1.9052,-1.9059,-1.9055,-1.9056,-1.903,-1.9027,-1.9019,-1.8979,-1.8978,-1.9011,-1.9009,-1.9008,-1.9008,0,0,0,0,0,0,0,-1.9104,-1.9099,-1.9055,-1.9069,-1.9069,-1.9071,-1.9069,-1.9042,-1.9038,-1.9058,-1.9059,-1.9056,-1.903,-1.9022,-1.9019,-1.8977,-1.9011,-1.9009,-1.9007,-1.9006,-1.8905,-1.8903,0,0,0,0,0,0,-1.9106,-1.9101,-1.9056,-1.9054,-1.9089,-1.9069,-1.9066,-1.9055,-1.9039,-1.9037,-1.9055,-1.9057,-1.9025,-1.9021,-1.9018,-1.8972,-1.9008,-1.9006,-1.9005,-1.8906,-1.8904,-1.8903,0,0,0,0,0,0,-1.9107,-1.9102,-1.9057,-1.9078,-1.9072,-1.9067,-1.9054,-1.9054,-1.9046,-1.9036,-1.9035,-1.9047,-1.9026,-1.9021,-1.899,-1.8971,-1.9005,-1.9003,-1.8907,-1.8905,-1.8904,-1.8882,0,0,0,0,0,0,-1.9109,-1.9102,-1.9089,-1.9078,-1.9071,-1.9032,-1.9053,-1.9053,-1.9042,-1.9044,-1.9029,-1.9027,-1.9026,-1.8994,-1.8988,-1.8969,-1.9001,-1.8909,-1.8907,-1.8904,-1.8884,-1.8879,-1.8875,0,0,0,0,0,-1.9111,-1.9083,-1.9088,-1.9083,-1.9055,-1.903,-1.9027,-1.9028,-1.9041,-1.9026,-1.902,-1.9028,-1.8975,-1.899,-1.8984,-1.8964,-1.891,-1.8907,-1.8905,-1.8886,-1.888,-1.8875,0,0,0,0,0,0,-1.909,-1.9081,-1.9087,-1.9055,-1.9044,-1.9033,-1.9015,-1.9022,-1.9005,-1.9007,-1.9008,-1.9004,-1.8972,-1.8965,-1.8983,-1.8926,-1.8944,-1.894,-1.8932,-1.8927,-1.8922,-1.8924,-1.8999,0,0,0,0,0,-1.9083,-1.9065,-1.9057,-1.9029,-1.9024,-1.9021,-1.901,-1.9012,-1.8999,-1.8994,-1.8986,-1.8972,-1.8952,-1.8939,-1.8921,-1.8883,-1.888,-1.8866,-1.8862,-1.8858,-1.8854,-1.8833,-1.8827,-1.8894,-1.8894,-1.8894,0,0,-1.9065,-1.9058,-1.9047,-1.9025,-1.9017,-1.8997,-1.9016,-1.8995,-1.898,-1.899,-1.8961,-1.8955,-1.8939,-1.8905,-1.8889,-1.8898,-1.8835,-1.8855,-1.8852,-1.885,-1.883,-1.8823,-1.8818,-1.8892,-1.8892,-1.8892,0,0,-1.9023,-1.9017,-1.8993,-1.8984,-1.8972,-1.897,-1.8964,-1.8953,-1.8949,-1.892,-1.8928,-1.8909,-1.8875,-1.8864,-1.8854,-1.8809,-1.8814,-1.8802,-1.8779,-1.8758,-1.8753,-1.8749,-1.8732,-1.8726,-1.8799,-1.8798,-1.8798,0,-1.9003,-1.8975,-1.8979,-1.8957,-1.8947,-1.8958,-1.8933,-1.8923,-1.8905,-1.8897,-1.8907,-1.8865,-1.8855,-1.8818,-1.8808,-1.8799,-1.8791,-1.8804,-1.8754,-1.8749,-1.8745,-1.8729,-1.8723,-1.8797,-1.8797,-1.8797,-1.8798,0,-1.895,-1.8931,-1.8913,-1.8896,-1.8884,-1.8861,-1.886,-1.8847,-1.885,-1.8846,-1.8816,-1.8805,-1.8785,-1.8776,-1.8778,-1.8739,-1.8745,-1.8755,-1.8772,-1.8737,-1.8722,-1.8716,-1.8795,-1.8796,-1.8796,-1.8796,0,0,-1.8894,-1.8881,-1.8874,-1.8867,-1.8854,-1.8838,-1.8814,-1.8796,-1.8784,-1.8771,-1.8751,-1.8722,-1.8731,-1.8719,-1.872,-1.8703,-1.8667,-1.8714,-1.8714,-1.8705,-1.8622,-1.8615,-1.8607,-1.8671,-1.867,-1.8669,-1.8623,0,-1.8851,-1.8812,-1.8815,-1.8777,-1.8759,-1.8769,-1.8748,-1.8737,-1.8734,-1.8716,-1.8711,-1.8691,-1.8705,-1.8698,-1.8681,-1.8675,-1.865,-1.8678,-1.865,-1.8649,-1.8653,-1.86,-1.8591,-1.8549,-1.8617,-1.8616,-1.8616,0,-1.8795,-1.8782,-1.8743,-1.8733,-1.8726,-1.8707,-1.869,-1.8674,-1.8662,-1.866,-1.8648,-1.8652,-1.8626,-1.8646,-1.861,-1.863,-1.8618,-1.8613,-1.8612,-1.8608,-1.863,-1.8594,-1.8535,-1.8529,-1.8607,-1.8607,-1.8608,0,-1.8757,-1.873,-1.8703,-1.8696,-1.8684,-1.8671,-1.8665,-1.8654,-1.8642,-1.8627,-1.8619,-1.8601,-1.859,-1.8575,-1.8573,-1.8588,-1.8537,-1.8557,-1.8534,-1.8534,-1.8523,-1.8523,-1.8461,-1.8517,-1.8517,-1.8517,-1.8517,0,-1.8709,-1.8684,-1.8686,-1.8669,-1.8642,-1.8645,-1.8617,-1.8612,-1.8602,-1.8584,-1.8591,-1.8573,-1.8572,-1.8553,-1.8552,-1.8522,-1.8517,-1.8515,-1.8514,-1.8514,-1.8514,-1.8506,-1.8508,-1.8515,-1.8515,-1.8516,-1.8516,0,-1.8661,-1.8661,-1.8633,-1.8624,-1.8621,-1.8601,-1.8593,-1.8577,-1.8574,-1.8551,-1.8545,-1.854,-1.8519,-1.8516,-1.849,-1.8489,-1.8454,-1.8457,-1.8458,-1.8459,-1.8436,-1.8438,-1.8366,-1.8356,-1.8419,-1.8418,-1.8418,0,-1.863,-1.8611,-1.8602,-1.8591,-1.8584,-1.8566,-1.8555,-1.8557,-1.8545,-1.853,-1.8515,-1.8494,-1.8478,-1.8443,-1.8436,-1.8416,-1.8418,-1.8394,-1.8415,-1.8415,-1.8417,-1.8418,-1.8416,-1.839,-1.8389,-1.8389,-1.8388,0,-1.8574,-1.8575,-1.856,-1.8544,-1.8531,-1.8518,-1.8507,-1.8497,-1.8497,-1.8483,-1.8462,-1.845,-1.8424,-1.8403,-1.8384,-1.8376,-1.8381,-1.8382,-1.8376,-1.8374,-1.8376,-1.8374,-1.8447,-1.8383,-1.8384,-1.8384,-1.8384,-1.8385,-1.8533,-1.8517,-1.8508,-1.849,-1.8482,-1.8471,-1.8455,-1.8451,-1.8434,-1.8415,-1.8417,-1.8393,-1.8381,-1.8356,-1.8347,-1.8327,-1.8335,-1.8326,-1.8323,-1.8321,-1.8319,-1.838,-1.8324,-1.8324,-1.8324,-1.8324,-1.8324,0,-1.8476,-1.8471,-1.8455,-1.844,-1.8426,-1.8434,-1.8422,-1.8409,-1.8389,-1.8377,-1.8362,-1.8337,-1.8317,-1.8309,-1.8289,-1.8275,-1.8277,-1.827,-1.827,-1.8268,-1.8313,-1.832,-1.8269,-1.8269,-1.8269,-1.8269,-1.8269,-1.8269,-1.8445,-1.8419,-1.8419,-1.8389,-1.8383,-1.8362,-1.8354,-1.8343,-1.8334,-1.8307,-1.8291,-1.8287,-1.8277,-1.8256,-1.8238,-1.8236,-1.8228,-1.8219,-1.8218,-1.826,-1.8265,-1.8271,-1.8277,-1.8217,-1.8217,-1.8175,-1.8174,-1.8174]}]]